Weather History for Shelbyville, IN

Change the Weather History Date:

Friday, May 31, 2013

  Actual Average Record
Temperature  
Mean Temperature 73 °F 68 °F  
Max Temperature 78 °F 78 °F 92 °F (2011)
Min Temperature 68 °F 57 °F 50 °F (2003)
Degree Days  
Heating Degree Days 0 2  
Month to date heating degree days 78 136  
Since 1 July heating degree days 5071 5395  
Cooling Degree Days 8 4  
Month to date cooling degree days 152 68  
Year to date cooling degree days 168 81  
Growing Degree Days 22 (Base 50)    
Moisture  
Dew Point 66 °F    
Average Humidity 78    
Maximum Humidity 87    
Minimum Humidity 69    
Precipitation  
Precipitation 0.38 in 0.15 in 0.74 in (1999)
Month to date precipitation 2.58 5.28  
Year to date precipitation 12.31 17.78  
Sea Level Pressure  
Sea Level Pressure 29.95 in    
Wind  
Wind Speed 13 mph (South)    
Max Wind Speed 20 mph    
Max Gust Speed 25 mph    
Visibility 8 miles    
Events Rain , Thunderstorm    
T = Trace of Precipitation, MM = Missing Value Source: NWS Daily Summary

Daily Weather History Graph

Daily Weather History Graph

Search for Another Location

Airport:

Trip Planner

Search our weather history database for the weather conditions in past years. The results will help you decide how hot, cold, wet, or windy it might be!

Date:

Astronomy

May. 31, 2013 Rise Set
Actual Time 6:18 AM EDT 9:04 PM EDT
Civil Twilight 5:46 AM EDT 9:36 PM EDT
Nautical Twilight 5:06 AM EDT 10:16 PM EDT
Astronomical Twilight 4:21 AM EDT 11:01 PM EDT
Moon 1:39 AM EDT (5/31) 1:31 PM EDT (5/31)
Length of Visible Light 15h 49m
Length of Day
14h 46m
Waning Gibbous, 51% of the Moon is Illuminated
May 31
Waning Gibbous
May 31
Last Quarter
Jun 8
New
Jun 16
First Quarter
Jun 23
Full

Hourly Weather History & Observations

Time (EDT) Temp. Dew Point Humidity Pressure Visibility Wind Dir Wind Speed Gust Speed Precip Events Conditions
12:53 AM 75.9 °F 66.0 °F 71% 29.99 in 10.0 mi South 10.4 mph - N/A   Clear
1:53 AM 75.9 °F 64.9 °F 69% 29.98 in 10.0 mi South 12.7 mph - N/A   Clear
2:53 AM 75.0 °F 64.9 °F 71% 29.96 in 10.0 mi South 13.8 mph - N/A   Clear
3:53 AM 73.9 °F 64.0 °F 71% 29.95 in 10.0 mi South 15.0 mph - N/A   Scattered Clouds
4:53 AM 73.9 °F 64.0 °F 71% 29.94 in 10.0 mi South 12.7 mph - N/A   Clear
5:53 AM 73.9 °F 64.0 °F 71% 29.94 in 10.0 mi South 16.1 mph - N/A   Partly Cloudy
6:53 AM 73.9 °F 64.0 °F 71% 29.94 in 10.0 mi South 15.0 mph 23.0 mph N/A   Scattered Clouds
7:53 AM 73.0 °F 64.9 °F 76% 29.96 in 10.0 mi SW 5.8 mph - 0.00 in Rain Light Rain
8:10 AM 73.4 °F 64.4 °F 73% 29.99 in 10.0 mi West 12.7 mph - 0.00 in   Overcast
8:53 AM 69.1 °F 64.9 °F 87% 30.01 in 5.0 mi West 10.4 mph - 0.01 in Rain Rain
9:14 AM 69.8 °F 64.4 °F 83% 30.01 in 3.0 mi SSW 5.8 mph - 0.02 in Rain Rain
9:51 AM 68.0 °F 64.4 °F 88% 30.02 in 2.5 mi SSW 5.8 mph - 0.10 in Rain Rain
9:53 AM 69.1 °F 64.9 °F 87% 30.01 in 3.0 mi SSW 4.6 mph - 0.10 in Rain Rain
10:02 AM 68.0 °F 64.4 °F 88% 30.02 in 1.8 mi SW 5.8 mph - 0.07 in Rain Heavy Rain
10:14 AM 68.0 °F 64.4 °F 88% 30.02 in 2.0 mi SSW 4.6 mph - 0.14 in Rain , Thunderstorm Heavy Thunderstorms and Rain
10:21 AM 68.0 °F 64.4 °F 88% 30.02 in 1.5 mi SSW 4.6 mph - 0.19 in Rain , Thunderstorm Heavy Thunderstorms and Rain
10:29 AM 68.0 °F 64.4 °F 88% 30.03 in 3.0 mi SSW 8.1 mph - 0.21 in Rain , Thunderstorm Rain
10:36 AM 68.0 °F 64.4 °F 88% 30.02 in 2.5 mi SW 4.6 mph - 0.24 in Rain , Thunderstorm Heavy Rain
10:46 AM 68.0 °F 64.4 °F 88% 30.01 in 3.0 mi South 4.6 mph - 0.27 in Rain Rain
10:53 AM 68.0 °F 64.9 °F 90% 29.98 in 8.0 mi SSE 4.6 mph - 0.27 in Rain Light Rain
11:53 AM 73.0 °F 68.0 °F 84% 29.98 in 10.0 mi South 13.8 mph - 0.00 in   Mostly Cloudy
12:53 PM 73.0 °F 66.9 °F 81% 29.98 in 10.0 mi South 17.3 mph - 0.00 in   Overcast
1:17 PM 73.4 °F 68.0 °F 83% 29.99 in 10.0 mi South 11.5 mph - 0.00 in Rain Light Rain
1:53 PM 75.0 °F 68.0 °F 79% 29.95 in 10.0 mi South 17.3 mph 23.0 mph 0.00 in Rain Light Rain
2:13 PM 75.2 °F 68.0 °F 78% 29.97 in 10.0 mi South 18.4 mph - N/A   Overcast
2:53 PM 75.9 °F 68.0 °F 76% 29.94 in 10.0 mi South 18.4 mph 24.2 mph N/A   Overcast
3:01 PM 75.2 °F 68.0 °F 78% 29.96 in 10.0 mi SSW 12.7 mph 24.2 mph N/A   Overcast
3:25 PM 77.0 °F 69.8 °F 78% 29.96 in 10.0 mi SSW 13.8 mph - N/A   Mostly Cloudy
3:53 PM 77.0 °F 69.1 °F 76% 29.91 in 10.0 mi South 12.7 mph - N/A   Mostly Cloudy
4:20 PM 77.0 °F 66.2 °F 69% 29.93 in 10.0 mi SW 18.4 mph - N/A   Mostly Cloudy
4:53 PM 77.0 °F 66.9 °F 71% 29.91 in 10.0 mi SSW 12.7 mph - N/A   Mostly Cloudy
5:13 PM 75.2 °F 66.2 °F 73% 29.92 in 10.0 mi South 15.0 mph 21.9 mph N/A   Mostly Cloudy
5:53 PM 73.9 °F 68.0 °F 82% 29.90 in 10.0 mi South 15.0 mph - N/A   Mostly Cloudy
6:04 PM 73.4 °F 66.2 °F 78% 29.92 in 10.0 mi South 16.1 mph - N/A   Scattered Clouds
6:53 PM 75.0 °F 68.0 °F 79% 29.90 in 10.0 mi South 16.1 mph - N/A   Partly Cloudy
7:46 PM 75.2 °F 68.0 °F 78% 29.91 in 10.0 mi South 11.5 mph - N/A   Mostly Cloudy
7:53 PM 75.9 °F 68.0 °F 76% 29.89 in 10.0 mi South 12.7 mph - N/A   Scattered Clouds
8:01 PM 75.2 °F 68.0 °F 78% 29.91 in 10.0 mi South 10.4 mph - N/A   Mostly Cloudy
8:53 PM 75.0 °F 69.1 °F 82% 29.88 in 10.0 mi South 11.5 mph - N/A   Overcast
9:48 PM 73.4 °F 69.8 °F 88% 29.88 in 10.0 mi South 10.4 mph - N/A   Mostly Cloudy
9:53 PM 73.9 °F 69.1 °F 85% 29.87 in 10.0 mi South 11.5 mph - N/A   Mostly Cloudy
10:31 PM 75.2 °F 69.8 °F 83% 29.91 in 10.0 mi South 11.5 mph - N/A   Overcast
10:53 PM 75.0 °F 68.0 °F 79% 29.89 in 10.0 mi South 12.7 mph - N/A   Mostly Cloudy
11:53 PM 73.9 °F 68.0 °F 82% 29.89 in 10.0 mi South 12.7 mph - N/A   Overcast